User: anonymous   Login
Location: Unspecified
(0.0000°N, 0.0000°E)
Time: 21:50:45
(UTC+00:00)
Language:

Satcom 3R - Orbit

View from above orbital plane
View from above orbital plane
View from above satellite
View from above satellite

Ground track
Ground track

The orbit is defined by the following mean orbital elements,

1 12967U          26150.59821610 +.00000000 +00000-0 +00000-0 0 00004
2 12967  12.1103 332.0304 0004125 336.5236  15.3123  1.00105262    02
Epoch (UTC): 30 May 2026 14:21:25
Eccentricity: 0.0004125
inclination: 12.1103°
perigee height: 35816 km
apogee height: 35851 km
right ascension of ascending node: 332.0304°
argument of perigee: 336.5236°
revolutions per day: 1.00105262
mean anomaly at epoch: 15.3123°

The dashed part of the orbit path shows where the satellite is in the earth's shadow,  

DLR